| time (UTC) | temp C | wind direction | speed KPH | gust KPH | rain 1hr cm | rain 24hr cm | rain mn cm | humidity % | barometer mb |
| 20260506111606 | 11 | 74 | 1.6 | 4.8 | 0.00 | 0.00 | 0.00 | 92 | 1017.8 |
| 20260506110107 | 11 | 77 | 0.0 | 3.2 | 0.00 | 0.00 | 0.00 | 93 | 1017.5 |
| 20260506104559 | 11 | 0 | 0.0 | 3.2 | 0.00 | 0.00 | 0.00 | 93 | 1017.7 |
| 20260506103102 | 11 | 0 | 0.0 | 0.0 | 0.00 | 0.00 | 0.00 | 94 | 1017.7 |
| 20260506101557 | 11 | 0 | 0.0 | 1.6 | 0.00 | 0.00 | 0.00 | 93 | 1017.7 |
| 20260506094559 | 11 | 117 | 0.0 | 3.2 | 0.00 | 0.00 | 0.00 | 93 | 1017.5 |
| 20260506093059 | 11 | 0 | 0.0 | 4.8 | 0.00 | 0.00 | 0.00 | 94 | 1017.3 |
| 20260506091600 | 10 | 0 | 0.0 | 1.6 | 0.00 | 0.00 | 0.00 | 93 | 1017.1 |
| 20260506090055 | 11 | 0 | 0.0 | 3.2 | 0.00 | 0.00 | 0.00 | 93 | 1017.1 |
| 20260506084556 | 11 | 44 | 1.6 | 4.8 | 0.00 | 0.00 | 0.00 | 93 | 1017.2 |
| 20260506083059 | 10 | 54 | 1.6 | 6.4 | 0.00 | 0.00 | 0.00 | 93 | 1017.1 |
| 20260506081600 | 10 | 53 | 1.6 | 6.4 | 0.00 | 0.00 | 0.00 | 93 | 1016.9 |
| 20260506073058 | 10 | 50 | 1.6 | 4.8 | 0.00 | 0.00 | 0.00 | 92 | 1016.5 |
| 20260506071555 | 11 | 61 | 1.6 | 4.8 | 0.00 | 0.00 | 0.00 | 91 | 1016.5 |
| 20260506070103 | 11 | 59 | 1.6 | 6.4 | 0.00 | 0.00 | 0.00 | 91 | 1016.3 |
| 20260506061614 | 11 | 68 | 1.6 | 6.4 | 0.00 | 0.00 | 0.00 | 90 | 1016.0 |
| 20260506044635 | 13 | 61 | 3.2 | 11.3 | 0.00 | 0.00 | 0.00 | 84 | 1015.2 |
| 20260506043058 | 13 | 77 | 4.8 | 11.3 | 0.00 | 0.00 | 0.00 | 82 | 1015.1 |
| 20260506041557 | 13 | 57 | 4.8 | 11.3 | 0.00 | 0.00 | 0.00 | 81 | 1014.9 |
| 20260506040059 | 14 | 56 | 6.4 | 12.9 | 0.00 | 0.00 | 0.00 | 79 | 1014.6 |
| 20260506034556 | 15 | 80 | 6.4 | 14.5 | 0.00 | 0.00 | 0.00 | 77 | 1014.5 |
| 20260506033056 | 16 | 81 | 4.8 | 11.3 | 0.00 | 0.00 | 0.00 | 76 | 1014.4 |
| 20260506031557 | 16 | 55 | 4.8 | 11.3 | 0.00 | 0.00 | 0.00 | 74 | 1014.1 |
| 20260506030059 | 17 | 83 | 4.8 | 11.3 | 0.00 | 0.00 | 0.00 | 71 | 1013.9 |
| 20260506024600 | 18 | 67 | 6.4 | 14.5 | 0.00 | 0.00 | 0.00 | 69 | 1013.8 |
| 20260506023100 | 18 | 95 | 6.4 | 11.3 | 0.00 | 0.00 | 0.00 | 67 | 1013.6 |
| 20260506021608 | 19 | 78 | 3.2 | 11.3 | 0.00 | 0.00 | 0.00 | 67 | 1013.6 |
| 20260506020056 | 20 | 107 | 3.2 | 11.3 | 0.00 | 0.00 | 0.00 | 64 | 1013.4 |
| 20260506014557 | 20 | 138 | 3.2 | 12.9 | 0.00 | 0.00 | 0.00 | 64 | 1013.6 |
| 20260506013059 | 21 | 113 | 4.8 | 11.3 | 0.00 | 0.00 | 0.00 | 63 | 1013.5 |
| 20260506011556 | 21 | 89 | 4.8 | 11.3 | 0.00 | 0.00 | 0.00 | 63 | 1013.5 |
| 20260506010115 | 21 | 95 | 4.8 | 11.3 | 0.00 | 0.00 | 0.00 | 62 | 1013.4 |
| 20260506004555 | 22 | 83 | 6.4 | 12.9 | 0.00 | 0.00 | 0.00 | 61 | 1013.3 |
| 20260506003059 | 22 | 86 | 4.8 | 11.3 | 0.00 | 0.00 | 0.00 | 61 | 1013.4 |
| 20260506001559 | 23 | 75 | 3.2 | 11.3 | 0.00 | 0.00 | 0.00 | 62 | 1013.3 |
| 20260506000100 | 23 | 89 | 4.8 | 9.7 | 0.00 | 0.00 | 0.00 | 61 | 1013.4 |
| 20260505234609 | 23 | 77 | 4.8 | 11.3 | 0.00 | 0.00 | 0.00 | 59 | 1013.4 |
| 20260505233100 | 23 | 79 | 3.2 | 12.9 | 0.00 | 0.00 | 0.00 | 61 | 1013.5 |
| 20260505231558 | 24 | 89 | 4.8 | 12.9 | 0.00 | 0.00 | 0.00 | 59 | 1013.6 |
| 20260505230104 | 24 | 99 | 3.2 | 8.0 | 0.00 | 0.00 | 0.00 | 60 | 1013.7 |
| 20260505224605 | 24 | 82 | 3.2 | 11.3 | 0.00 | 0.00 | 0.00 | 57 | 1013.6 |
| 20260505223102 | 23 | 146 | 3.2 | 11.3 | 0.00 | 0.00 | 0.00 | 60 | 1013.8 |
| 20260505221559 | 23 | 153 | 1.6 | 16.1 | 0.00 | 0.00 | 0.00 | 60 | 1013.9 |
| 20260505214623 | 23 | 101 | 3.2 | 9.7 | 0.00 | 0.00 | 0.00 | 61 | 1014.3 |
| 20260505213105 | 22 | 55 | 4.8 | 11.3 | 0.00 | 0.00 | 0.00 | 61 | 1014.3 |
| 20260505211558 | 22 | 142 | 3.2 | 8.0 | 0.00 | 0.00 | 0.00 | 65 | 1014.4 |
| 20260505204605 | 21 | 74 | 1.6 | 8.0 | 0.00 | 0.00 | 0.00 | 68 | 1014.7 |
| 20260505203059 | 21 | 0 | 1.6 | 6.4 | 0.00 | 0.00 | 0.00 | 67 | 1014.9 |
| 20260505201558 | 20 | 153 | 1.6 | 8.0 | 0.00 | 0.00 | 0.00 | 70 | 1015.1 |
| 20260505200105 | 20 | 17 | 1.6 | 4.8 | 0.00 | 0.00 | 0.00 | 74 | 1015.2 |
| 20260505194607 | 18 | 121 | 1.6 | 8.0 | 0.00 | 0.00 | 0.00 | 77 | 1015.2 |
| 20260505193059 | 18 | 191 | 3.2 | 9.7 | 0.00 | 0.00 | 0.00 | 75 | 1015.3 |
| 20260505191559 | 17 | 142 | 1.6 | 11.3 | 0.00 | 0.00 | 0.00 | 81 | 1015.5 |
| 20260505190059 | 16 | 112 | 1.6 | 11.3 | 0.00 | 0.00 | 0.00 | 86 | 1015.5 |
| 20260505184557 | 15 | 58 | 1.6 | 11.3 | 0.00 | 0.00 | 0.00 | 86 | 1015.5 |
| 20260505183059 | 13 | 205 | 1.6 | 8.0 | 0.00 | 0.00 | 0.00 | 88 | 1015.7 |
| 20260505181558 | 13 | 297 | 0.0 | 3.2 | 0.00 | 0.00 | 0.00 | 90 | 1015.8 |
| 20260505180108 | 13 | 288 | 0.0 | 3.2 | 0.00 | 0.00 | 0.00 | 92 | 1015.8 |
| 20260505174605 | 12 | 0 | 1.6 | 6.4 | 0.00 | 0.00 | 0.00 | 91 | 1015.8 |
| 20260505173057 | 12 | 0 | 0.0 | 3.2 | 0.00 | 0.00 | 0.00 | 92 | 1015.8 |
| 20260505171557 | 12 | 0 | 0.0 | 4.8 | 0.00 | 0.00 | 0.00 | 94 | 1015.7 |
| 20260505170058 | 12 | 61 | 1.6 | 4.8 | 0.00 | 0.00 | 0.00 | 94 | 1015.8 |
| 20260505164557 | 12 | 0 | 0.0 | 6.4 | 0.00 | 0.00 | 0.00 | 94 | 1015.8 |
| 20260505163059 | 12 | 76 | 0.0 | 3.2 | 0.00 | 0.00 | 0.00 | 94 | 1015.8 |
| 20260505161621 | 12 | 0 | 0.0 | 3.2 | 0.00 | 0.00 | 0.00 | 95 | 1015.7 |
| 20260505160104 | 11 | 70 | 1.6 | 4.8 | 0.00 | 0.00 | 0.00 | 96 | 1015.6 |
| 20260505153056 | 11 | 0 | 0.0 | 0.0 | 0.00 | 0.00 | 0.00 | 97 | 1015.5 |
| 20260505151601 | 11 | 0 | 0.0 | 0.0 | 0.00 | 0.00 | 0.00 | 97 | 1015.5 |
| 20260505150108 | 11 | 0 | 0.0 | 0.0 | 0.00 | 0.00 | 0.00 | 98 | 1015.3 |
| 20260505140108 | 10 | 0 | 0.0 | 0.0 | 0.00 | 0.00 | 0.00 | 99 | 1014.9 |
| 20260505124557 | 7 | 0 | 0.0 | 0.0 | 0.00 | 0.00 | 0.00 | 98 | 1014.0 |
| 20260505123104 | 7 | 0 | 0.0 | 0.0 | 0.00 | 0.00 | 0.00 | 97 | 1014.0 |
| 20260505121603 | 7 | 0 | 0.0 | 0.0 | 0.00 | 0.00 | 0.00 | 97 | 1013.9 |
| 20260505120056 | 7 | 0 | 0.0 | 0.0 | 0.00 | 0.00 | 0.00 | 97 | 1013.7 |
| 20260505114601 | 8 | 0 | 0.0 | 0.0 | 0.00 | 0.00 | 0.00 | 97 | 1013.7 |
| 20260505113111 | 8 | 0 | 0.0 | 0.0 | 0.00 | 0.00 | 0.00 | 97 | 1013.6 |